RH
30 62 72 59 100 100 65 50 48 88 94 66 38 64 67 34 38 54 56 59 44 38 28 19 15 16 17 16 16 14 14 12 18 42 16 15 65 70 72 75 83 91 100 95
82 72 76 86 78 82 73 37 77 72 90 90 93 79 34 38 54 44 67 43 43 29 19 16 18 20 19 18 16 16 15 15 22 42 15 18 76 75 76 79 84 92 100 78
66 76 98 86 72 70 100 100 71 62 67 84 62 29 34 41 48 92 67 27 22 18 18 22 23 22 19 18 17 16 18 17 27 43 15 27 72 70 78 77 85 94 99 82
60 80 45 47 50 60 40 50 55 58 70 52 27 41 56 71 49 21 19 18 19 22 25 26 24 20 20 19 16 17 18 20 35 41 16 34 61 63 86 80 85 90 82 96
14 20 22 26 36 54 48 58 71 48 30 32 41 69 36 32 29 29 27 28 28 28 26 23 21 22 21 17 26 23 14 20 33 50 15 37 51 45 92 86 82 86 69 96
17 19 20 25 31 39 44 33 26 53 66 49 18 10 12 12 13 15 19 22 22 22 22 22 24 21 18 39 65 60 22 18 29 55 14 24 55 42 71 88 80 56 51 64
30 32 33 37 40 47 53 33 13 10 9 9 9 10 11 12 14 16 18 20 23 24 24 24 21 24 54 72 72 82 64 16 30 56 14 17 56 43 48 89 80 71 42 56
28 26 23 14 13 12 9 10 11 11 12 13 11 10 14 16 20 21 24 26 27 26 25 30 53 69 66 54 60 76 83 16 34 62 15 17 40 48 48 91 85 95 42 45
15 14 10 9 10 12 13 16 20 20 17 14 16 29 36 43 41 26 25 26 28 37 55 66 64 41 26 25 47 62 74 17 37 84 19 18 26 53 49 84 91 88 55 41
9 9 9 10 11 13 16 20 21 20 40 56 55 52 47 40 31 31 38 51 67 73 59 48 20 15 15 17 25 49 81 21 32 87 26 20 19 39 48 72 96 91 94 41
9 10 12 15 16 21 22 26 46 57 56 57 62 63 60 57 58 66 72 61 31 18 15 15 15 15 14 15 17 30 87 30 30 85 31 19 19 32 44 59 98 96 98 100
19 22 24 28 30 34 44 52 52 53 37 36 28 28 31 42 38 23 15 14 14 13 14 12 12 12 11 11 17 40 91 26 51 86 26 17 21 22 23 36 99 100 100 100
32 33 39 39 34 29 28 25 25 22 19 19 20 23 19 13 12 11 9 8 7 8 10 11 11 11 12 12 14 98 95 25 93 100 21 18 23 56 33 21 41 65 98 100
10 10 10 10 12 13 14 15 15 16 20 22 16 19 35 38 17 10 12 13 15 16 15 15 15 14 14 12 12 88 99 30 100 100 70 54 88 100 100 96 28 24 26 35
7 9 9 11 12 14 15 17 21 23 19 34 80 41 10 10 12 12 13 14 16 15 13 10 9 6 5 5 7 37 100 62 73 100 100 78 100 100 100 100 100 88 49 27
9 12 14 16 18 21 26 25 23 32 70 27 9 10 10 10 12 20 26 26 25 28 29 28 19 7 5 5 6 13 94 97 65 76 100 100 84 100 84 100 99 100 83 100
12 16 22 24 28 36 35 23 60 24 9 9 10 10 10 12 13 16 18 18 16 13 14 28 32 20 6 5 6 5 46 100 100 81 100 100 100 95 84 99 100 100 81 97
19 27 34 43 52 51 31 24 9 9 9 9 9 12 14 15 16 16 17 19 23 24 16 15 29 30 14 5 5 6 9 74 100 100 100 100 100 100 100 100 100 100 100 100
27 36 47 66 70 43 12 9 10 9 8 12 16 16 14 14 14 15 16 18 21 22 24 15 14 25 28 19 7 4 5 6 24 95 97 100 86 89 100 100 100 100 100 100
34 45 68 81 65 18 11 11 7 10 15 20 26 23 23 21 20 17 16 17 17 19 23 21 16 11 14 20 19 14 7 4 4 4 6 23 58 80 60 64 82 98 100 100
35 53 62 49 32 14 8 7 12 13 19 28 23 23 25 22 23 28 25 22 19 19 17 16 15 14 12 10 9 10 10 11 10 9 8 6 5 4 5 18 52 66 65 78
28 34 5 8 9 6 6 11 12 19 25 26 32 36 36 33 34 37 39 39 41 36 20 17 16 16 16 14 13 13 12 12 11 9 8 7 7 7 7 6 5 5 7 25
14 4 2 3 4 6 10 12 18 22 26 30 30 29 32 32 34 35 34 34 34 35 33 35 36 37 35 29 24 22 20 18 17 14 13 12 11 10 8 7 6 6 6 6
3 1 2 3 5 8 11 14 19 25 24 24 23 26 28 29 30 28 29 31 29 30 27 29 32 33 32 33 34 35 36 31 30 30 27 21 18 15 12 10 9 8 8 6
1 1 2 3 5 8 10 15 18 17 18 19 22 26 28 27 30 32 36 36 37 41 40 40 40 43 41 40 36 31 28 26 26 25 25 25 26 25 23 19 15 12 12 10
1 1 2 3 4 6 7 10 12 14 17 17 23 27 22 22 31 36 39 39 38 37 32 27 21 19 26 34 36 38 38 37 32 27 27 26 25 24 24 24 22 19 16 12
1 1 1 2 3 3 5 7 8 10 16 21 23 23 21 12 18 27 28 25 18 16 26 28 21 14 13 14 16 15 22 30 35 37 37 32 28 26 26 23 23 22 22 22
Wind_Speed
27 23 26 26 33 39 35 27 24 22 21 22 22 23 23 19 19 21 22 24 24 27 27 29 31 33 35 38 41 45 48 50 52 53 53 58 56 60 63 66 60 51 46 45
10 10 12 11 11 16 20 20 14 14 17 16 18 20 17 17 19 21 21 25 26 26 26 28 30 33 36 39 42 44 47 49 50 52 53 57 56 60 63 66 56 49 45 44
11 11 5 16 10 2 4 8 8 11 13 13 15 14 15 18 21 22 23 25 23 24 26 28 32 34 37 40 43 44 46 48 50 51 52 55 55 59 63 66 53 47 43 45
12 10 11 10 8 4 1 3 4 5 8 10 12 13 19 21 20 21 21 21 23 25 28 30 33 35 37 39 42 43 44 46 49 49 49 53 54 58 61 65 51 45 43 41
19 18 16 14 11 7 4 3 2 3 5 8 14 16 16 19 20 21 22 24 26 28 30 32 33 35 38 40 41 43 43 45 48 48 47 50 52 56 61 63 50 44 41 39
21 18 17 14 12 10 8 7 5 5 7 10 16 17 19 20 22 24 25 27 28 29 30 32 33 36 37 38 40 42 42 43 47 47 45 48 49 54 59 61 50 41 38 39
18 17 16 15 13 10 8 4 6 9 11 14 16 19 22 24 24 25 25 25 27 28 30 32 34 35 35 36 39 41 42 41 46 45 44 46 46 51 58 59 53 40 37 37
13 13 12 11 9 8 8 9 11 14 17 20 22 24 25 25 24 25 26 26 28 29 31 31 31 32 34 35 37 38 39 39 43 43 42 44 44 47 55 56 55 39 34 37
9 9 9 8 9 10 12 14 18 22 24 26 27 27 26 25 25 26 26 27 29 29 30 30 32 34 33 34 32 35 38 36 39 42 41 41 42 44 50 52 53 44 34 34
9 10 11 13 14 17 20 22 25 27 27 25 24 24 25 25 26 27 27 28 29 30 32 33 32 31 31 32 30 31 34 34 36 39 38 38 41 40 45 47 50 52 35 31
11 12 15 17 20 21 24 25 25 22 23 24 25 25 25 26 27 28 29 31 31 30 29 28 29 29 28 29 28 28 29 31 33 36 36 34 39 40 42 44 46 50 49 33
14 16 18 20 23 23 23 22 22 23 23 24 25 26 27 28 29 29 28 27 27 26 26 26 25 25 25 27 25 24 25 26 29 33 32 33 37 41 43 42 43 48 49 48
14 16 18 19 21 22 22 21 22 22 24 25 27 28 27 25 23 22 21 21 22 21 22 24 25 25 26 25 23 22 22 21 24 29 30 31 35 43 46 44 42 46 47 48
13 15 17 18 19 20 21 22 23 24 26 27 25 21 20 20 20 21 23 24 26 25 25 24 23 21 19 19 21 19 19 16 18 21 27 27 31 36 35 42 44 43 44 44
12 15 16 17 19 20 22 24 24 25 24 19 20 19 21 24 27 26 25 24 24 24 24 22 19 17 16 14 15 14 14 15 13 14 20 21 24 32 33 33 36 42 42 43
15 17 19 20 20 21 23 24 24 20 19 17 21 24 23 22 22 24 25 26 26 25 23 22 19 17 19 17 11 14 10 11 16 16 14 18 19 23 23 26 30 30 32 35
18 20 20 21 22 23 24 22 19 15 18 23 22 20 22 23 25 26 26 26 29 29 25 25 23 17 15 17 16 14 14 7 12 18 23 21 20 19 20 19 23 27 32 31
20 22 23 22 22 22 20 15 15 19 21 20 20 22 24 25 27 29 29 29 29 32 33 26 25 23 17 15 17 16 17 15 12 13 17 21 27 29 19 21 25 28 29 28
21 24 24 22 20 19 16 18 19 18 19 21 24 25 25 26 28 30 32 34 35 33 32 36 29 27 28 24 20 18 18 18 21 18 14 18 22 22 25 27 24 25 23 24
23 25 24 20 17 14 17 15 18 21 25 29 30 31 34 36 36 36 33 31 33 38 39 36 40 35 32 33 33 30 25 24 22 22 21 24 25 25 25 27 27 26 27 23
25 27 25 19 11 12 15 20 22 25 24 26 28 30 32 33 35 39 41 43 43 40 39 40 41 43 43 40 38 37 37 37 37 32 31 29 27 26 25 26 26 26 28 29
26 27 23 12 14 18 24 24 25 24 25 25 25 26 26 27 28 31 35 38 42 46 46 45 46 45 45 44 45 46 47 46 45 43 40 38 36 35 33 31 28 27 27 27
26 27 15 17 26 27 26 27 24 24 24 26 27 28 30 32 34 35 37 40 42 43 45 46 48 50 51 51 50 50 49 48 47 46 45 45 44 43 41 40 38 36 34 31
24 17 19 30 32 30 27 26 25 25 26 27 29 30 31 34 38 40 42 44 44 45 45 46 47 47 46 46 46 45 45 46 47 47 48 47 47 46 47 47 45 44 43 41
18 16 25 31 32 28 26 24 24 25 26 28 31 34 37 38 40 41 42 43 44 46 47 52 56 56 53 50 48 47 47 46 44 43 42 42 43 45 44 45 46 45 46 44
15 17 24 29 28 25 24 23 23 25 25 26 28 32 34 35 39 40 42 45 47 48 48 48 48 51 55 52 51 49 48 46 44 42 42 42 40 39 41 42 42 43 43 46
11 16 21 26 27 23 22 21 21 21 22 22 24 27 28 31 34 35 37 38 39 41 42 43 44 47 49 52 54 55 54 51 51 48 49 45 42 40 41 42 43 44 45 45
Wind_Direction
290 292 282 264 250 257 271 267 260 263 273 274 271 273 281 294 292 297 302 303 309 311 318 323 326 327 330 333 334 336 337 338 340 341 341 342 340 341 341 342 337 333 325 329
9 11 12 8 298 266 262 259 258 248 263 278 275 284 297 289 293 302 304 308 309 313 322 325 324 327 331 333 334 335 336 338 341 342 344 344 343 343 346 346 340 339 333 337
11 3 32 348 351 215 103 157 264 266 277 290 290 287 291 298 297 306 308 305 312 320 322 322 325 329 331 332 333 335 338 339 342 344 346 347 346 347 351 351 344 343 341 341
28 17 3 20 49 72 39 332 317 289 282 284 288 300 295 300 314 309 310 316 318 320 320 323 327 329 330 332 333 336 339 341 343 345 347 349 350 350 353 355 350 348 350 347
59 61 64 66 71 81 52 55 322 306 304 303 309 312 323 306 308 310 312 316 316 317 320 323 326 329 331 332 335 337 340 341 344 346 350 352 353 353 357 359 357 355 356 356
62 64 66 66 72 74 74 69 30 343 313 310 305 315 315 310 310 311 311 312 316 319 322 325 328 330 332 335 338 339 339 341 346 348 351 355 354 356 0 3 5 4 4 7
62 68 70 70 66 66 66 1 334 335 328 321 318 315 317 317 315 314 315 316 318 321 324 325 328 330 332 336 337 338 339 344 347 349 352 357 356 356 3 6 12 9 11 13
61 58 55 47 40 25 12 348 338 326 323 321 318 315 314 314 315 316 318 320 321 322 323 326 328 329 329 332 334 339 341 345 349 351 354 359 360 0 4 9 16 15 16 20
32 29 22 11 359 349 334 328 324 322 319 317 317 316 316 316 314 315 317 317 320 322 322 323 323 324 329 332 335 338 343 346 350 353 356 1 3 5 6 13 20 23 23 24
354 351 344 337 330 325 324 322 320 321 323 323 324 323 321 319 318 317 317 318 318 318 319 320 322 327 333 333 335 337 344 346 351 355 358 5 9 8 10 17 26 30 29 33
328 330 327 323 319 319 318 321 322 325 323 320 322 320 319 318 317 316 316 316 318 319 318 319 322 323 325 329 334 336 343 347 353 358 3 12 14 18 19 22 31 35 37 36
323 322 320 314 314 316 320 320 320 319 320 319 319 319 319 318 321 323 325 322 321 321 324 325 326 328 333 334 336 342 345 350 358 5 11 19 22 29 27 26 35 40 41 43
316 316 311 311 315 318 319 319 319 319 318 319 321 325 331 336 337 337 339 343 344 340 336 334 333 334 335 342 346 350 349 356 14 13 19 28 35 39 35 33 35 40 42 43
317 319 318 320 316 317 318 318 317 320 323 330 342 352 351 351 354 354 350 344 339 333 329 331 336 339 346 351 352 352 349 1 24 16 22 39 45 38 33 34 36 39 42 43
327 327 324 324 321 323 318 319 326 329 346 5 356 7 9 357 351 345 343 342 341 339 338 336 335 343 346 347 347 345 357 4 13 22 16 37 40 35 33 32 32 35 38 39
326 329 330 328 324 321 323 328 336 4 4 18 17 2 355 359 3 4 8 8 5 2 3 2 359 358 2 3 352 4 13 11 12 8 18 26 27 31 39 39 35 36 40 34
329 332 330 325 324 328 329 342 11 27 30 13 6 11 16 19 17 14 12 13 15 13 10 14 14 11 11 14 14 15 20 13 18 19 19 24 31 21 27 27 22 27 35 35
329 330 332 330 330 331 346 34 42 30 17 24 38 34 33 30 28 27 25 23 22 25 27 23 25 28 28 25 25 26 29 24 5 17 21 20 25 28 19 16 14 17 28 27
328 332 334 335 330 346 56 55 34 29 55 48 48 48 46 40 38 36 37 36 34 33 34 37 38 37 42 42 37 32 33 29 29 21 10 13 9 21 22 25 23 16 22 22
331 332 337 337 341 65 69 47 63 71 73 68 59 57 54 52 50 47 45 43 43 41 39 43 48 49 46 48 50 48 42 37 31 28 24 23 20 20 14 9 11 15 20 20
332 337 340 338 24 76 70 90 84 82 71 62 63 60 57 57 56 52 50 49 49 49 49 51 52 55 56 55 53 52 52 51 50 44 37 30 25 22 20 18 15 13 6 5
336 342 349 21 82 95 103 94 89 76 71 69 64 61 61 59 53 51 54 54 53 54 55 56 56 56 57 58 59 59 57 56 54 52 48 44 41 36 32 27 20 13 12 10
344 346 18 91 107 107 103 96 85 83 74 70 66 63 61 60 59 56 53 53 53 52 50 50 49 49 49 51 51 51 51 51 50 49 48 46 43 41 38 34 30 25 19 13
347 9 85 110 113 112 103 97 89 82 77 74 70 68 66 65 64 62 59 57 56 54 52 50 49 47 46 44 42 42 42 42 42 41 42 42 40 39 39 38 35 32 28 25
3 45 98 115 116 115 105 98 92 87 83 80 77 75 74 71 68 65 62 59 57 55 53 54 54 51 46 43 40 37 36 36 35 33 33 32 33 34 33 34 34 29 24 18
21 60 105 120 122 118 110 107 99 92 87 85 82 82 76 71 69 67 66 65 62 58 56 55 53 51 49 46 43 42 39 35 32 29 27 26 26 25 24 22 20 19 18 16
34 66 106 125 127 124 119 114 108 97 90 90 89 88 82 80 75 71 67 64 60 56 54 52 49 45 44 43 41 39 39 36 33 30 28 23 19 18 16 13 11 9 8 4